"Pseudo-MPEC" for P21CmBa

Created 2023 Jan 19 15:22:15 UT using Find_Orb

Click here for an explanation of pseudo-MPECs

 
 Astrometry: 
     P21CmBa* C2022 12 013P(2:EvsoG8CV*r1QiJNsbK+PmoJZw?HN!4B!0opWangkfxw/#%\F52
     P21CmBa  C2022 12 01eQhD]fX4_Zan^b$S25;Z#`FU7/X=Fxn4nAstrometrylK4J9t+V5F52
     P21CmBa  C2022 12 01y:wXHcm=DJ#Do.8fT64h^ms*,m5(iWY!YvHvtsS?SHMkh[\#@(p9F52
     P21CmBa  C2022 12 013V`sBE*Uredacted;FcRo_LBlEuoLf]-`0ChZ6U7w2dsWnOXW['pF52
     P21CmBa  C2022 12 15-I-D1YclickdogA/wdQX-IQ?3KP'.8[5bB8$O6herej/U_vvnM`EF52
     P21CmBa  C2022 12 15_:,.l%A=VqnR.VNF5$]%g8=42forjN1*h84w4QSjL_.Zo]*;c/(UF52
     P21CmBa  C2022 12 15MEi9iq%s`explanationwftt(j(T)74yNn)i2mKgtJ1h9(mghjS=F52
     P21CmBa  C2022 12 15-CFQ%T[BZD7=3I086+b!sV*@CrdP5(72)h87#.Z]SK!@NeYJu@wQF52

Station data:
(F52) Pan-STARRS 2, Haleakala  (N20.707382 W156.255910)  US/Hawaii.
   Observers J. Bulger, T. Dukes, T. Lowe, A. Schultz, M. Willman. Measurers
   K. Chambers, S. Chastel, T. de Boer, L. Denneau, J. Fairlamb, H.
   Flewelling, M. Huber, C.-C. Lin, E. Magnier, Y. Ramanjooloo, R. Wainscoat,
   R. Weryk. 1.8-m Ritchey-Chrétien + CCD.

Orbital elements:  P21CmBa
   Perihelion 2023 Feb 1.14755 +/- 51.1 TT =  3:32:28 (JD 2459976.64755)
Epoch 2022 Dec 15.0 TT = JDT 2459928.5   Earth MOID: 0.8210      AutoNEOCP
M 348.47736254 +/- 13               (J2000 ecliptic)
n   0.23931926 +/- 0.0979           Peri.  119.47142 +/- 42
a   2.56931650 +/- 0.701            Node   355.04218 +/- 12
e   0.3474583 +/- 0.116             Incl.   30.31682 +/- 3.2
P   4.12                   H 18.89  G  0.15   U 11.2  SR
q 1.67658604 +/- 0.203    Q 3.46204696 +/- 1.68
From 8 observations 2022 Dec. 1-15; mean residual 0".10
Residuals in arcseconds: 
221201 F52  .02-  .01+    221201 F52  .02+  .05+    221215 F52  .05+  .09+    
221201 F52  .12-  .12-    221215 F52  .19-  .07-    221215 F52  .21+  .09+    
221201 F52  .12+  .06+    221215 F52  .07-  .10-    

Ephemerides (geocentric):
Date (UTC) HH   RA             Dec           delta  r     elong  mag " sig PA
---- --------  ------------   ------------  ------ ------ -----  --- --------
2023 01 19 15  07 15 30.927   +78 53 35.62  .94361 1.6795 121.2 21.2 5635 127
2023 01 19 16  07 15 23.082   +78 52 53.21  .94359 1.6794 121.2 21.2 5650 127
2023 01 19 17  07 15 15.259   +78 52 10.72  .94357 1.6794 121.2 21.2 5664 127
2023 01 19 18  07 15 07.458   +78 51 28.13  .94355 1.6794 121.2 21.2 5679 127
2023 01 19 19  07 14 59.680   +78 50 45.45  .94354 1.6794 121.2 21.2 5694 127
2023 01 19 20  07 14 51.924   +78 50 02.68  .94352 1.6794 121.2 21.2 5708 127
2023 01 19 21  07 14 44.191   +78 49 19.82  .94350 1.6793 121.2 21.2 5723 127
2023 01 19 22  07 14 36.480   +78 48 36.87  .94348 1.6793 121.2 21.2 5738 127
2023 01 19 23  07 14 28.792   +78 47 53.82  .94346 1.6793 121.2 21.2 5753 127
2023 01 20 00  07 14 21.126   +78 47 10.69  .94345 1.6793 121.2 21.2 5767 127
2023 01 20 01  07 14 13.482   +78 46 27.46  .94343 1.6793 121.2 21.2 5782 127
2023 01 20 02  07 14 05.861   +78 45 44.14  .94341 1.6792 121.2 21.2 5797 127
2023 01 20 03  07 13 58.263   +78 45 00.73  .94340 1.6792 121.2 21.2 5812 127
2023 01 20 04  07 13 50.687   +78 44 17.23  .94338 1.6792 121.2 21.2 5827 127
2023 01 20 05  07 13 43.134   +78 43 33.64  .94336 1.6792 121.2 21.2 5842 126
2023 01 20 06  07 13 35.603   +78 42 49.96  .94335 1.6792 121.2 21.2 5857 126
2023 01 20 07  07 13 28.094   +78 42 06.19  .94333 1.6792 121.2 21.2 5872 126
2023 01 20 08  07 13 20.608   +78 41 22.33  .94331 1.6791 121.2 21.2 5887 126
2023 01 20 09  07 13 13.145   +78 40 38.37  .94330 1.6791 121.2 21.2 5902 126
2023 01 20 10  07 13 05.704   +78 39 54.33  .94328 1.6791 121.2 21.2 5917 126
2023 01 20 11  07 12 58.286   +78 39 10.20  .94327 1.6791 121.2 21.2 5932 126
2023 01 20 12  07 12 50.890   +78 38 25.97  .94325 1.6791 121.2 21.2 5947 126
2023 01 20 13  07 12 43.516   +78 37 41.66  .94324 1.6790 121.2 21.2 5962 126
2023 01 20 14  07 12 36.166   +78 36 57.26  .94322 1.6790 121.2 21.2 5977 126
2023 01 20 15  07 12 28.837   +78 36 12.76  .94321 1.6790 121.2 21.2 5993 126
2023 01 20 16  07 12 21.532   +78 35 28.18  .94319 1.6790 121.2 21.2 6008 126
2023 01 20 17  07 12 14.249   +78 34 43.51  .94318 1.6790 121.2 21.2 6023 126
2023 01 20 18  07 12 06.988   +78 33 58.75  .94316 1.6790 121.2 21.2 6038 126
2023 01 20 19  07 11 59.750   +78 33 13.89  .94315 1.6789 121.2 21.2 6054 126
2023 01 20 20  07 11 52.534   +78 32 28.95  .94314 1.6789 121.2 21.2 6069 126
2023 01 20 21  07 11 45.342   +78 31 43.92  .94312 1.6789 121.2 21.2 6084 126
2023 01 20 22  07 11 38.171   +78 30 58.81  .94311 1.6789 121.2 21.2 6100 126
2023 01 20 23  07 11 31.023   +78 30 13.60  .94309 1.6789 121.2 21.2 6115 126
2023 01 21 00  07 11 23.898   +78 29 28.30  .94308 1.6789 121.2 21.2 6130 126
2023 01 21 01  07 11 16.795   +78 28 42.92  .94307 1.6788 121.2 21.2 6146 125
2023 01 21 02  07 11 09.715   +78 27 57.44  .94306 1.6788 121.2 21.2 6161 125
2023 01 21 03  07 11 02.657   +78 27 11.88  .94304 1.6788 121.2 21.2 6177 125
2023 01 21 04  07 10 55.622   +78 26 26.23  .94303 1.6788 121.2 21.2 6192 125
2023 01 21 05  07 10 48.609   +78 25 40.49  .94302 1.6788 121.2 21.2 6208 125
2023 01 21 06  07 10 41.619   +78 24 54.66  .94301 1.6788 121.2 21.2 6224 125
2023 01 21 07  07 10 34.652   +78 24 08.74  .94299 1.6787 121.2 21.2 6239 125
2023 01 21 08  07 10 27.707   +78 23 22.74  .94298 1.6787 121.2 21.2 6255 125
2023 01 21 09  07 10 20.784   +78 22 36.65  .94297 1.6787 121.2 21.2 6270 125
2023 01 21 10  07 10 13.884   +78 21 50.47  .94296 1.6787 121.2 21.2 6286 125
2023 01 21 11  07 10 07.007   +78 21 04.20  .94295 1.6787 121.2 21.2 6302 125
2023 01 21 12  07 10 00.152   +78 20 17.85  .94294 1.6787 121.2 21.2 6318 125
2023 01 21 13  07 09 53.319   +78 19 31.40  .94293 1.6786 121.2 21.2 6333 125
2023 01 21 14  07 09 46.509   +78 18 44.87  .94291 1.6786 121.2 21.2 6349 125